Spokane, WA
on Thursday, January 3, 2013

Thursday
Previous Day Next Day
Daily Summary
 ActualAverageRecord
Temperature
Mean Temperature °F 28°F  
Max Temperature 24°F 32°F 49°F (1902)
Min Temperature 6°F 23°F -12°F (1899)
Degree Days
Heating Degree Days 50 37  
Month to date heating degree days 145 113  
Since 1 July heating degree days 2570 2947  
Cooling Degree Days 0 0  
Month to date cooling degree days 0 0  
Year to date cooling degree days 0 0  
Moisture
Dew Point 10°F   
Average Humidity 87    
Maximum Humidity 100    
Minimum Humidity 74    
Precipitation
Precipitation 0.00 in 0.07 in 1.04 in (1907)
Month to date precipitation T 0.20  
Year to date precipitation T 0.20  
Snow
Snow 0.00 in 0.40 in 8.70 in (1993)
Month to date snowfall T 1.4  
Since 1 July snowfall 24.0 23.5  
Snow Depth 4.00 in   
Wind
Wind Speed 2 mph   
Max Wind Speed 9 mph   
Max Gust Speed 10 mph   
Visibility 7 miles   
Events Fog   

Key: T is trace of precipitation, MM is missing value
Source: NWS Daily Summary
Time(PST)TemperatureDew PointHumidity Pressure Visibility Wind DirectionWind SpeedGust SpeedPrecipitationEvents Conditions
12:53 AM 14.0°F 10.9°F 88% 30.50 in 7.0 miles Calm Calm - N/A Fog Patches of Fog
1:53 AM 10.9°F 9.0°F 92% 30.50 in 7.0 miles Calm Calm - N/A Fog Patches of Fog
2:30 AM 10.4°F 8.6°F 92% 30.38 in 1.0 miles Calm Calm - N/A   Partly Cloudy
2:53 AM 7.0°F 5.0°F 92% 30.50 in 1.0 miles Calm Calm - N/A   Partly Cloudy
3:05 AM 6.8°F 5.0°F 92% 30.37 in 0.5 miles Calm Calm - N/A Fog Light Freezing Fog
3:53 AM 10.0°F 7.0°F 87% 30.48 in 0.5 miles Calm Calm - N/A Fog Light Freezing Fog
4:53 AM 9.0°F 7.0°F 92% 30.48 in 0.5 miles Calm Calm - N/A Fog Light Freezing Fog
5:04 AM 8.6°F 6.8°F 92% 30.36 in 0.8 miles Calm Calm - N/A   Scattered Clouds
5:37 AM 10.4°F 8.6°F 92% 30.36 in 1.0 miles Calm Calm - N/A   Partly Cloudy
5:53 AM 10.0°F 6.1°F 84% 30.48 in 1.5 miles Calm Calm - N/A   Partly Cloudy
6:21 AM 10.4°F 6.8°F 85% 30.35 in 2.5 miles Calm Calm - N/A   Partly Cloudy
6:37 AM 10.4°F 6.8°F 85% 30.34 in 5.0 miles Calm Calm - N/A   Partly Cloudy
6:53 AM 10.0°F 7.0°F 87% 30.47 in 7.0 miles Calm Calm - N/A Fog Patches of Fog
7:53 AM 8.1°F 5.0°F 87% 30.48 in 7.0 miles Calm Calm - N/A Fog Patches of Fog
8:53 AM 7.0°F 5.0°F 92% 30.49 in 7.0 miles Calm Calm - N/A Fog Patches of Fog
9:17 AM 8.6°F 6.8°F 92% 30.35 in 5.0 miles West 3.5 mph - N/A Fog Patches of Fog
9:53 AM 12.0°F 12.0°F 100% 30.49 in 8.0 miles Calm Calm - N/A Fog Patches of Fog
10:53 AM 19.0°F 17.1°F 92% 30.46 in 10.0 miles Calm Calm - N/A   Scattered Clouds
11:53 AM 21.0°F 16.0°F 81% 30.43 in 10.0 miles NE 5.8 mph - N/A   Scattered Clouds
12:53 PM 23.0°F 17.1°F 78% 30.41 in 10.0 miles NNE 4.6 mph - N/A   Scattered Clouds
1:53 PM 23.0°F 18.0°F 81% 30.38 in 10.0 miles ENE 8.1 mph - N/A   Scattered Clouds
2:53 PM 24.1°F 18.0°F 77% 30.38 in 10.0 miles NE 5.8 mph - N/A   Mostly Cloudy
3:53 PM 21.9°F 16.0°F 78% 30.38 in 10.0 miles North 3.5 mph - N/A   Mostly Cloudy
4:53 PM 17.1°F 12.9°F 84% 30.40 in 10.0 miles Calm Calm - N/A   Mostly Cloudy
5:53 PM 17.1°F 14.0°F 88% 30.39 in 10.0 miles Calm Calm - N/A   Mostly Cloudy
6:53 PM 12.9°F 10.0°F 88% 30.41 in 10.0 miles Calm Calm - N/A   Mostly Cloudy
7:53 PM 10.0°F 7.0°F 87% 30.42 in 10.0 miles Calm Calm - N/A   Scattered Clouds
8:53 PM 12.0°F 8.1°F 84% 30.41 in 10.0 miles SSE 3.5 mph - N/A   Partly Cloudy
9:53 PM 15.1°F 12.0°F 88% 30.42 in 7.0 miles South 4.6 mph - N/A   Partly Cloudy
10:53 PM 16.0°F 14.0°F 92% 30.41 in 10.0 miles SSE 5.8 mph - N/A   Mostly Cloudy
11:53 PM 16.0°F 12.9°F 88% 30.41 in 10.0 miles SSE 6.9 mph - N/A   Overcast
Moon Phase
Jan. 03 Jan. 04 Jan. 11 Jan. 18 Jan. 26
Sunrise:07:38 AM (PST) Moon Rise:11:23 PM (PST)1/3
Sunset:04:11 PM (PST) Moon Set:10:23 AM (PST)1/3

Copyright © 2014 The Weather Underground, Inc.